Butler, PA

3:27 PM EDT on September 22, 2019 (GMT -0400)
Butler County-Scholter

Weather History for KBTP - August, 2019

Change the Weather History Date:

Monday, August 19, 2019

  Actual Average Record
Temperature  
Mean Temperature 74 °F -  
Max Temperature 86 °F 77 °F 89 °F (1971)
Min Temperature 64 °F 58 °F 42 °F (1977)
Cooling Degree Days 9    
Growing Degree Days 24 (Base 50)    
Moisture  
Dew Point 66 °F    
Average Humidity 84    
Maximum Humidity 100    
Minimum Humidity 56    
Precipitation  
Precipitation 0.06 in - - ()
Sea Level Pressure  
Sea Level Pressure 30.05 in    
Wind  
Wind Speed 4 mph (West)    
Max Wind Speed 12 mph    
Max Gust Speed 28 mph    
Visibility 9 miles    
Events Rain , Thunderstorm    
Averages and records for this station are not official NWS values.
T = Trace of Precipitation, MM = Missing Value Source: NWS Daily Summary

Daily Weather History Graph

Daily Weather History Graph

Search for Another Location

Airport or City:

Astronomy

Aug. 19, 2019 Rise Set
Actual Time 6:33 AM EDT 8:12 PM EDT
Civil Twilight 6:04 AM EDT 8:41 PM EDT
Nautical Twilight 5:29 AM EDT 9:16 PM EDT
Astronomical Twilight 4:51 AM EDT 9:53 PM EDT
Moon 10:31 PM EDT (8/19) 10:14 AM EDT (8/19)
Length of Visible Light 14h 36m
Length of Day
13h 38m
Waning Gibbous, 85% of the Moon is Illuminated
Aug 19
Waning Gibbous
Aug 23
Last Quarter
Aug 30
New
Sep 5
First Quarter
Sep 14
Full

Hourly Weather History & Observations

Time (EDT) Temp. Heat Index Dew Point Humidity Pressure Visibility Wind Dir Wind Speed Gust Speed Precip Events Conditions
12:56 AM 72.0 °F - 68.0 °F 87% 29.97 in 10.0 mi South 4.6 mph - N/A   Clear
1:56 AM 72.0 °F - 69.1 °F 91% 29.96 in 10.0 mi South 5.8 mph - N/A   Mostly Cloudy
2:32 AM 73.4 °F - 69.8 °F 88% 29.98 in 10.0 mi Variable 6.9 mph - N/A Thunderstorm Scattered Clouds
2:53 AM 69.8 °F - 66.2 °F 88% 30.04 in 6.0 mi NW 9.2 mph 27.6 mph 0.01 in Rain , Thunderstorm Heavy Thunderstorms and Rain
2:54 AM 69.1 °F - 66.0 °F 90% 30.02 in 6.0 mi NNW 11.5 mph 27.6 mph 0.01 in Rain , Thunderstorm Heavy Thunderstorms and Rain
3:11 AM 68.0 °F - 66.2 °F 94% 30.03 in 10.0 mi Variable 3.5 mph - 0.02 in Rain , Thunderstorm Light Thunderstorms and Rain
3:18 AM 66.2 °F - 66.2 °F 100% 30.04 in 10.0 mi Calm Calm - 0.02 in Rain Light Rain
3:56 AM 66.9 °F - 66.0 °F 97% 30.01 in 10.0 mi NNE 3.5 mph - 0.03 in Rain Light Rain
4:56 AM 66.0 °F - 64.9 °F 96% 29.96 in 10.0 mi ESE 6.9 mph - 0.00 in   Clear
5:56 AM 66.0 °F - 64.9 °F 96% 30.00 in 10.0 mi NW 3.5 mph - 0.01 in   Scattered Clouds
6:18 AM 66.2 °F - 64.4 °F 94% 30.03 in 10.0 mi WNW 3.5 mph - N/A   Mostly Cloudy
6:53 AM 64.4 °F - 64.4 °F 100% 30.04 in 2.0 mi Calm Calm - N/A   Scattered Clouds
6:56 AM 64.9 °F - 64.9 °F 100% 30.04 in 1.2 mi Calm Calm - N/A   Scattered Clouds
7:04 AM 64.4 °F - 64.4 °F 100% 30.04 in 1.0 mi Calm Calm - N/A   Mist
7:11 AM 64.4 °F - 64.4 °F 100% 30.05 in 2.0 mi Calm Calm - N/A   Clear
7:29 AM 66.2 °F - 66.2 °F 100% 30.05 in 6.0 mi Calm Calm - N/A   Clear
7:56 AM 66.9 °F - 66.0 °F 97% 30.06 in 10.0 mi West 3.5 mph - 0.01 in   Clear
8:33 AM 69.8 °F - 66.2 °F 88% 30.08 in 10.0 mi WSW 3.5 mph - N/A   Partly Cloudy
8:56 AM 70.0 °F - 66.9 °F 90% 30.08 in 10.0 mi WSW 5.8 mph - N/A   Scattered Clouds
9:56 AM 73.0 °F - 66.9 °F 81% 30.08 in 10.0 mi WSW 8.1 mph - N/A   Scattered Clouds
10:04 AM 73.4 °F - 66.2 °F 78% 30.09 in 10.0 mi Variable 4.6 mph - N/A   Mostly Cloudy
10:19 AM 73.4 °F - 66.2 °F 78% 30.09 in 10.0 mi WSW 10.4 mph - N/A   Scattered Clouds
10:28 AM 73.4 °F - 66.2 °F 78% 30.10 in 10.0 mi West 5.8 mph - N/A   Mostly Cloudy
10:53 AM 75.2 °F - 66.2 °F 73% 30.10 in 10.0 mi NW 5.8 mph - N/A   Scattered Clouds
10:56 AM 75.0 °F - 66.0 °F 73% 30.09 in 10.0 mi Variable 3.5 mph - N/A   Scattered Clouds
11:56 AM 77.0 °F - 66.0 °F 69% 30.09 in 10.0 mi Calm Calm - N/A   Clear
12:56 PM 80.1 °F 82.3 °F 66.9 °F 64% 30.09 in 10.0 mi Variable 4.6 mph - N/A   Clear
1:56 PM 81.0 °F 83.0 °F 66.0 °F 60% 30.08 in 10.0 mi Variable 3.5 mph - N/A   Clear
2:56 PM 82.9 °F 85.4 °F 66.9 °F 58% 30.07 in 10.0 mi SW 5.8 mph - N/A   Clear
3:56 PM 84.0 °F 86.5 °F 66.9 °F 56% 30.06 in 10.0 mi Variable 4.6 mph - N/A   Scattered Clouds
4:56 PM 82.9 °F 85.0 °F 66.0 °F 56% 30.06 in 10.0 mi Variable 3.5 mph - N/A   Partly Cloudy
5:56 PM 82.9 °F 85.4 °F 66.9 °F 58% 30.05 in 10.0 mi Variable 3.5 mph - N/A   Mostly Cloudy
6:56 PM 82.0 °F 84.9 °F 68.0 °F 62% 30.05 in 10.0 mi Calm Calm - N/A   Clear
7:56 PM 78.1 °F - 68.0 °F 71% 30.05 in 10.0 mi Calm Calm - N/A   Clear
8:56 PM 73.0 °F - 68.0 °F 84% 30.07 in 10.0 mi Calm Calm - N/A   Clear
9:56 PM 71.1 °F - 66.9 °F 87% 30.10 in 10.0 mi Calm Calm - N/A   Clear
10:56 PM 69.1 °F - 66.9 °F 93% 30.11 in 10.0 mi Calm Calm - N/A   Clear
11:56 PM 66.9 °F - 66.9 °F 100% 30.12 in 10.0 mi Calm Calm - N/A   Clear